| time (UTC) | temp F | wind direction | speed MPH | gust MPH | rain 1hr in | rain 24hr in | rain mn in | humidity % | barometer mb |
| 20260902210030 | 77 | 191 | 2.0 | 6.0 | 0.00 | 0.26 | 0.26 | 80 | 1015.9 |
| 20260902204531 | 77 | 173 | 2.0 | 8.0 | 0.00 | 0.26 | 0.26 | 78 | 1015.7 |
| 20260902203030 | 78 | 146 | 2.0 | 7.0 | 0.00 | 0.26 | 0.26 | 78 | 1015.6 |
| 20260902201519 | 78 | 178 | 2.0 | 9.0 | 0.00 | 0.26 | 0.26 | 77 | 1015.4 |
| 20260902200027 | 78 | 163 | 6.0 | 11.0 | 0.00 | 0.26 | 0.26 | 76 | 1015.2 |
| 20260902194505 | 77 | 153 | 4.0 | 11.0 | 0.00 | 0.26 | 0.26 | 78 | 1015.1 |
| 20260902193010 | 77 | 192 | 6.0 | 12.0 | 0.00 | 0.26 | 0.26 | 78 | 1015.3 |
| 20260902191518 | 76 | 162 | 3.0 | 12.0 | 0.00 | 0.26 | 0.26 | 78 | 1015.6 |
| 20260902190021 | 77 | 179 | 5.0 | 13.0 | 0.00 | 0.26 | 0.26 | 78 | 1015.7 |
| 20260902184530 | 76 | 171 | 5.0 | 15.0 | 0.00 | 0.26 | 0.26 | 80 | 1015.6 |
| 20260902183009 | 76 | 132 | 6.0 | 14.0 | 0.00 | 0.26 | 0.26 | 79 | 1016.0 |
| 20260902181514 | 76 | 221 | 5.0 | 15.0 | 0.00 | 0.26 | 0.26 | 80 | 1016.1 |
| 20260902180020 | 76 | 202 | 4.0 | 14.0 | 0.00 | 0.26 | 0.26 | 81 | 1015.9 |
| 20260902174531 | 75 | 185 | 6.0 | 13.0 | 0.00 | 0.26 | 0.26 | 81 | 1015.8 |
| 20260902173006 | 74 | 198 | 6.0 | 12.0 | 0.00 | 0.26 | 0.26 | 82 | 1015.9 |
| 20260902171513 | 73 | 149 | 6.0 | 12.0 | 0.00 | 0.26 | 0.26 | 84 | 1016.1 |
| 20260902170016 | 72 | 159 | 6.0 | 13.0 | 0.00 | 0.26 | 0.26 | 86 | 1016.1 |
| 20260902164522 | 71 | 202 | 5.0 | 12.0 | 0.00 | 0.26 | 0.26 | 88 | 1016.2 |
| 20260902163028 | 70 | 157 | 7.0 | 16.0 | 0.01 | 0.26 | 0.26 | 93 | 1015.8 |
| 20260902161507 | 68 | 161 | 4.0 | 12.0 | 0.05 | 0.26 | 0.26 | 98 | 1016.3 |
| 20260902160012 | 66 | 136 | 6.0 | 12.0 | 0.08 | 0.26 | 0.26 | 98 | 1016.4 |
| 20260902154533 | 66 | 188 | 3.0 | 12.0 | 0.12 | 0.26 | 0.26 | 98 | 1016.3 |
| 20260902153026 | 65 | 209 | 4.0 | 14.0 | 0.15 | 0.25 | 0.25 | 98 | 1016.2 |
| 20260902151535 | 65 | 217 | 7.0 | 18.0 | 0.14 | 0.21 | 0.21 | 98 | 1016.3 |
| 20260902150010 | 65 | 253 | 5.0 | 14.0 | 0.14 | 0.18 | 0.18 | 98 | 1016.5 |
| 20260902144512 | 65 | 247 | 2.0 | 12.0 | 0.10 | 0.15 | 0.14 | 98 | 1018.1 |
| 20260902143025 | 65 | 220 | 2.0 | 9.0 | 0.07 | 0.11 | 0.10 | 98 | 1018.0 |
| 20260902141535 | 64 | 261 | 4.0 | 11.0 | 0.07 | 0.08 | 0.07 | 98 | 1017.9 |
| 20260902140030 | 64 | 171 | 3.0 | 6.0 | 0.04 | 0.05 | 0.04 | 97 | 1017.8 |
| 20260902134512 | 64 | 173 | 4.0 | 10.0 | 0.04 | 0.05 | 0.04 | 97 | 1017.3 |
| 20260902133020 | 65 | 153 | 5.0 | 9.0 | 0.03 | 0.04 | 0.03 | 97 | 1017.2 |
| 20260902131527 | 65 | 182 | 2.0 | 7.0 | 0.00 | 0.01 | 0.00 | 96 | 1018.0 |
| 20260902130033 | 65 | 154 | 4.0 | 7.0 | 0.00 | 0.01 | 0.00 | 96 | 1017.9 |
| 20260902124531 | 65 | 162 | 1.0 | 5.0 | 0.00 | 0.01 | 0.00 | 97 | 1017.8 |
| 20260902123026 | 65 | 111 | 3.0 | 8.0 | 0.00 | 0.01 | 0.00 | 97 | 1018.0 |
| 20260902121523 | 65 | 128 | 3.0 | 9.0 | 0.00 | 0.01 | 0.00 | 97 | 1017.8 |
| 20260902120028 | 65 | 166 | 3.0 | 10.0 | 0.00 | 0.01 | 0.00 | 97 | 1017.0 |
| 20260902114534 | 65 | 138 | 3.0 | 12.0 | 0.00 | 0.01 | 0.00 | 98 | 1017.1 |
| 20260902113030 | 65 | 153 | 5.0 | 10.0 | 0.00 | 0.01 | 0.00 | 98 | 1017.1 |
| 20260902111534 | 65 | 141 | 6.0 | 13.0 | 0.00 | 0.01 | 0.00 | 98 | 1016.3 |
| 20260902110005 | 65 | 165 | 6.0 | 10.0 | 0.00 | 0.01 | 0.00 | 98 | 1016.4 |
| 20260902104537 | 64 | 146 | 5.0 | 12.0 | 0.00 | 0.01 | 0.00 | 98 | 1016.3 |
| 20260902103017 | 65 | 178 | 5.0 | 10.0 | 0.00 | 0.01 | 0.00 | 98 | 1016.7 |
| 20260902101518 | 64 | 165 | 4.0 | 10.0 | 0.00 | 0.01 | 0.00 | 98 | 1017.1 |
| 20260902100003 | 64 | 180 | 3.0 | 9.0 | 0.00 | 0.01 | 0.00 | 98 | 1017.2 |
| 20260902094503 | 64 | 137 | 5.0 | 10.0 | 0.00 | 0.01 | 0.00 | 98 | 1017.1 |
| 20260902093024 | 64 | 148 | 4.0 | 9.0 | 0.00 | 0.01 | 0.00 | 98 | 1017.3 |
| 20260902091513 | 64 | 149 | 4.0 | 9.0 | 0.00 | 0.02 | 0.00 | 98 | 1017.2 |
| 20260902090020 | 64 | 152 | 4.0 | 10.0 | 0.00 | 0.03 | 0.00 | 98 | 1017.2 |
| 20260902084504 | 64 | 107 | 3.0 | 8.0 | 0.00 | 0.03 | 0.00 | 98 | 1017.4 |
| 20260902083005 | 64 | 134 | 4.0 | 9.0 | 0.00 | 0.03 | 0.00 | 98 | 1017.5 |
| 20260902081510 | 64 | 132 | 3.0 | 8.0 | 0.00 | 0.03 | 0.00 | 97 | 1017.3 |
| 20260902080024 | 64 | 139 | 3.0 | 9.0 | 0.00 | 0.03 | 0.00 | 97 | 1017.4 |
| 20260902074524 | 64 | 157 | 3.0 | 9.0 | 0.00 | 0.04 | 0.00 | 97 | 1017.4 |
| 20260902073016 | 64 | 161 | 4.0 | 10.0 | 0.00 | 0.04 | 0.00 | 97 | 1017.3 |
| 20260902071512 | 64 | 149 | 3.0 | 9.0 | 0.00 | 0.05 | 0.00 | 98 | 1017.1 |
| 20260902070027 | 64 | 160 | 5.0 | 10.0 | 0.00 | 0.11 | 0.00 | 97 | 1017.2 |
| 20260902064524 | 63 | 111 | 4.0 | 8.0 | 0.00 | 0.13 | 0.00 | 98 | 1017.3 |
| 20260902063027 | 63 | 178 | 3.0 | 8.0 | 0.00 | 0.13 | 0.00 | 97 | 1017.3 |
| 20260902061506 | 63 | 142 | 3.0 | 8.0 | 0.00 | 0.13 | 0.00 | 97 | 1017.3 |
| 20260902060010 | 63 | 167 | 1.0 | 5.0 | 0.00 | 0.13 | 0.00 | 97 | 1017.4 |
| 20260902054522 | 63 | 177 | 3.0 | 6.0 | 0.00 | 0.13 | 0.00 | 97 | 1017.3 |
| 20260902053025 | 63 | 194 | 2.0 | 7.0 | 0.00 | 0.13 | 0.00 | 97 | 1017.2 |
| 20260902051528 | 63 | 164 | 2.0 | 5.0 | 0.00 | 0.13 | 0.00 | 97 | 1017.3 |
| 20260902050010 | 63 | 171 | 1.0 | 4.0 | 0.00 | 0.13 | 0.00 | 96 | 1017.4 |
| 20260902044516 | 63 | 171 | 0.0 | 4.0 | 0.00 | 0.13 | 0.00 | 96 | 1017.3 |
| 20260902043029 | 64 | 150 | 1.0 | 6.0 | 0.00 | 0.13 | 0.00 | 96 | 1017.0 |
| 20260902041527 | 64 | 155 | 2.0 | 7.0 | 0.00 | 0.13 | 0.00 | 96 | 1016.9 |
| 20260902040034 | 64 | 186 | 2.0 | 5.0 | 0.00 | 0.13 | 0.00 | 96 | 1016.7 |
| 20260902034512 | 64 | 160 | 2.0 | 5.0 | 0.00 | 0.13 | 0.13 | 96 | 1016.8 |
| 20260902033029 | 64 | 167 | 1.0 | 4.0 | 0.00 | 0.13 | 0.13 | 96 | 1016.9 |
| 20260902031535 | 64 | 182 | 0.0 | 5.0 | 0.00 | 0.13 | 0.13 | 95 | 1016.7 |
| 20260902030027 | 65 | 164 | 3.0 | 8.0 | 0.00 | 0.13 | 0.13 | 95 | 1016.7 |
| 20260902024509 | 65 | 160 | 3.0 | 7.0 | 0.00 | 0.13 | 0.13 | 94 | 1016.8 |
| 20260902023033 | 66 | 158 | 3.0 | 6.0 | 0.00 | 0.13 | 0.13 | 94 | 1016.9 |
| 20260902021531 | 66 | 158 | 1.0 | 5.0 | 0.00 | 0.13 | 0.13 | 94 | 1016.9 |
| 20260902020029 | 67 | 148 | 2.0 | 7.0 | 0.00 | 0.13 | 0.13 | 93 | 1016.9 |
| 20260902014530 | 67 | 166 | 3.0 | 6.0 | 0.00 | 0.13 | 0.13 | 93 | 1017.0 |
| 20260902013012 | 67 | 147 | 1.0 | 8.0 | 0.00 | 0.13 | 0.13 | 92 | 1016.8 |
| 20260902011516 | 68 | 126 | 3.0 | 6.0 | 0.00 | 0.13 | 0.13 | 92 | 1016.5 |
| 20260902010029 | 68 | 174 | 1.0 | 5.0 | 0.00 | 0.13 | 0.13 | 92 | 1016.5 |
| 20260902004530 | 68 | 154 | 1.0 | 5.0 | 0.00 | 0.13 | 0.13 | 92 | 1016.2 |
| 20260902003034 | 68 | 182 | 0.0 | 4.0 | 0.00 | 0.13 | 0.13 | 92 | 1015.9 |
| 20260902001512 | 69 | 167 | 1.0 | 3.0 | 0.00 | 0.13 | 0.13 | 92 | 1015.7 |
| 20260902000030 | 69 | 149 | 0.0 | 6.0 | 0.00 | 0.13 | 0.13 | 91 | 1015.5 |
| 20260901234529 | 70 | 165 | 2.0 | 5.0 | 0.00 | 0.13 | 0.13 | 90 | 1015.6 |
| 20260901233028 | 70 | 150 | 1.0 | 5.0 | 0.00 | 0.13 | 0.13 | 89 | 1015.7 |
| 20260901231531 | 72 | 182 | 2.0 | 3.0 | 0.00 | 0.13 | 0.13 | 89 | 1015.6 |
| 20260901230027 | 72 | 182 | 0.0 | 2.0 | 0.00 | 0.13 | 0.13 | 88 | 1015.6 |
| 20260901224528 | 73 | 131 | 0.0 | 4.0 | 0.00 | 0.13 | 0.13 | 87 | 1015.7 |
| 20260901223031 | 73 | 134 | 0.0 | 6.0 | 0.00 | 0.13 | 0.13 | 87 | 1015.7 |
| 20260901221534 | 73 | 178 | 3.0 | 5.0 | 0.00 | 0.13 | 0.13 | 87 | 1015.6 |
| 20260901220054 | 73 | 112 | 0.0 | 6.0 | 0.00 | 0.13 | 0.13 | 88 | 1015.7 |
| 20260901214523 | 73 | 136 | 3.0 | 5.0 | 0.00 | 0.13 | 0.13 | 88 | 1015.5 |
| 20260901213100 | 73 | 178 | 1.0 | 8.0 | 0.00 | 0.13 | 0.13 | 88 | 1015.5 |
| 20260901211531 | 73 | 205 | 3.0 | 8.0 | 0.00 | 0.13 | 0.13 | 87 | 1015.4 |